sat.trackr.live / text

‹ back to catalog

STARLINK-6189

NORAD 56377 · 2023-061D

PAYLOAD ACTIVE UNKNOWN

§ Identity

Operator
Country
US
Launch date
2023-05-04
Launch site
AFETR
Launch vehicle
Mass (kg)
RCS (m²)

Purposes: comms

External: N2YO · Heavens-Above · Gunter

§ Orbital elements

Epoch: 2026-05-24T23:52:29.533728Z

Period
94.27 min
Inclination
43.0001°
Eccentricity
0.0001695
Mean motion
15.27582392 rev/d
Perigee alt
481.9 km
Apogee alt
484.2 km
Semi-major
6,861.2 km
B*
7.7018e-5
RAAN
127.4732°
Arg perigee
215.2915°
Mean anomaly
144.7825°
Rev number
16,841

§ Raw data

STARLINK-61891 56377U 23061D   26144.99478627  .00001858  00000+0  77018-4 0  99972 56377  43.0001 127.4732 0001695 215.2915 144.7825 15.27582392168415

JSON: /api/v1/satellites/56377 · /tle

For live sub-satellite position, see the globe view (requires WebGL).

§ Visibility from observer

Set your observer location to see the next 7 days of passes ≥ 10°. The values pass through the URL so the page stays shareable.

No JS? Fill the form by hand. The geolocation button needs JavaScript.